Location: Valasske Mezirici
(49.4670°N, 17.9670°E)
Time: 20:49:50
(UTC+01:00)

ISS - Visible Passes

Search period start: 12 December 2018 00:00
Search period end: 22 December 2018 00:00
Orbit: 401 x 408 km, 51.6° (Epoch: 13 December)

Date Brightness Start Highest point End Pass type
(mag) Time Alt. Az. Time Alt. Az. Time Alt. Az.
12 Dec -1.5 17:23:16 10° W 17:25:58 24° SW 17:28:39 10° SSE visible
13 Dec -2.2 16:30:53 10° W 16:33:57 37° SSW 16:36:59 10° SE visible
14 Dec -0.5 17:16:18 10° WSW 17:17:47 13° SW 17:19:16 10° SSW visible
15 Dec -0.8 16:23:20 10° W 16:25:50 20° SW 16:28:19 10° SSE visible
